Location: Chełm
(51.1339°N, 23.4725°E)
Time: 01:53:02
(UTC+01:00)

ISS - Pass Details

Date: 24 January 2019
Orbit: 403 x 411 km, 51.6° (Epoch: 17 February)

Event Time Altitude Azimuth Distance (km) Brightness Sun altitude
Rises 17:44:19 0° 211° (SSW) 2,325 0.7 -15.7°
Reaches altitude 10° 17:46:42 10° 195° (SSW) 1,470 -0.7 -16.1°
Maximum altitude 17:49:15 21° 144° (SE) 985 -2.1 -16.5°
Enters shadow 17:49:18 21° 143° (SE) 985 -2.2 -16.5°
